Regional Weather Roundup
Issued by NWS

Home | Current Version | Previous Version | Graphics & Text | Print | Product List | Glossary On
Versions: 1 2 3 4 5 6 7 8 9 10 11 12 13 14 15 16 17 18 19 20 21 22 23 24 25 26 27 28 29 30 31 32 33 34 35 36 37 38 39 40 41 42 43 44 45 46 47 48 49 50
678
ASUS44 KJAN 202110
RWRMS

MISSISSIPPI HOURLY WEATHER ROUNDUP
NATIONAL WEATHER SERVICE JACKSON MS
400 PM CDT WED AUG 20 2014

NOTE: "FAIR: INDICATES FEW OR NO CLOUDS BELOW 12,000 FEET WITH NO
SIGNIFICANT WEATHER AND/OR OBSTRUCTIONS TO VISIBILITY.

MSZ001>002-007>008-010>013-018>021-025>028-034>036-202200-
NORTHWEST MISSISSIPPI

CITY           SKY/WX    TMP DP  RH WIND       PRES   REMARKS
CLARKSDALE     FAIR      91  75  59 SW5       30.02F HX 102
CLEVELAND      FAIR      93  73  53 SW7       30.01F HX 102
GREENWOOD      SUNNY     91  72  53 SW7       30.02F HX  98
GREENVILLE     SUNNY     92  68  45 SW5       30.01F HX  96
GRENADA        FAIR      91  70  49 W7        30.03F HX  97
OLIVE BRANCH   MOSUNNY   91  73  55 SW9G21    30.01F HX 100
OXFORD         FAIR      90  68  48 W6        30.04F HX  93
TUNICA         PTCLDY    91  70  49 SW10      30.01F HX  97
$$

MSZ003>006-009-014>017-022>024-029>033-037>039-202200-
NORTHEAST MISSISSIPPI

CITY           SKY/WX    TMP DP  RH WIND       PRES   REMARKS
BELMONT        FAIR      90  75  60 SW5       30.02F HX 101
COLUMBUS AFB   SUNNY     94  67  41 W5        30.01F HX  98
CORINTH        FAIR      93  72  49 W8        29.99F HX 100
GOLDN TRIANGLE MOSUNNY   99  72  41 N7        30.02  HX 107
STARKVILLE     FAIR      93  66  40 CALM      30.01F HX  96
TUPELO         SUNNY     95  68  41 W12       30.00F HX  99
$$

MSZ040-058-202200-
CENTRAL MISSISSIPPI

CITY           SKY/WX    TMP DP  RH WIND       PRES   REMARKS
JACKSON INTL   MOSUNNY   92  69  47 S6        30.03F HX  97
JACKSON HAWKNS SUNNY     93  69  45 S5        30.04F HX  98
MERIDIAN KEY   MOSUNNY   94  69  44 VRB5      30.03F HX  99
MERIDIAN NAS   MOSUNNY   93  68  43 SW7       30.03F HX  97
RAYMOND        FAIR      95  90  84 S6        30.03F HX 139
VICKSBURG      MOSUNNY   93  69  45 SE7       30.02F HX  98
$$

MSZ059>079-202200-
SOUTH MISSISSIPPI

CITY           SKY/WX    TMP DP  RH WIND       PRES   REMARKS
BROOKHAVEN     FAIR      93  72  49 S6        30.06S HX 100
COLUMBIA       FAIR      93  72  49 MISG      30.03S HX 100
HATTIESBURG    SUNNY     96  64  34 W5        30.04F HX  98
MCCOMB         SUNNY     93  69  45 S9        30.04S HX  98
NATCHEZ        SUNNY     91  73  55 S7        30.04R HX 100
PINE BELT      SUNNY     93  66  40 SE3       30.06F HX  96
$$

MSZ080>082-202200-
COASTAL MISSISSIPPI

CITY           SKY/WX    TMP DP  RH WIND       PRES   REMARKS
BAY ST LOUIS   MOSUNNY  N/A N/A N/A SE5       30.04F
BILOXI         MOSUNNY   92  76  60 S13       30.04F HX 104
PASCAGOULA     MOSUNNY   87  74  64 SW5       30.04F HX  95
GULFPORT       MOSUNNY   91  75  59 S9        30.04F HX 101
$$



USA.gov is the U.S. government's official web portal to all federal, state and local government web resources and services.